Weather History for KBTM - May, 2013

Change the Weather History Date:

Sunday, May 5, 2013

  Actual Average Record
Temperature  
Mean Temperature 46 °F 44 °F  
Max Temperature 63 °F 58 °F 82 °F (1966)
Min Temperature 28 °F 31 °F 15 °F (2010)
Degree Days  
Heating Degree Days 19 21  
Month to date heating degree days 119 107  
Since 1 July heating degree days 8399 8498  
Cooling Degree Days 0 0  
Month to date cooling degree days 0 0  
Year to date cooling degree days 0 0  
Moisture  
Dew Point 29 °F    
Average Humidity 58    
Maximum Humidity 92    
Minimum Humidity 23    
Precipitation  
Precipitation 0.00 in 0.05 in 0.48 in (1924)
Month to date precipitation 0.04 0.24  
Year to date precipitation 0.94 3.07  
Sea Level Pressure  
Sea Level Pressure 30.06 in    
Wind  
Wind Speed 6 mph (SE)    
Max Wind Speed 23 mph    
Max Gust Speed 28 mph    
Visibility 10 miles    
Events      
T = Trace of Precipitation, MM = Missing Value Source: NWS Daily Summary

Daily Weather History Graph

Daily Weather History Graph

Search for Another Location

Airport or City:

Trip Planner

Search our weather history database for the weather conditions in past years. The results will help you decide how hot, cold, wet, or windy it might be!

Date:

Astronomy

May. 05, 2013 Rise Set
Actual Time 6:10 AM MDT 8:43 PM MDT
Civil Twilight 5:36 AM MDT 9:17 PM MDT
Nautical Twilight 4:54 AM MDT 9:59 PM MDT
Astronomical Twilight 4:06 AM MDT 10:48 PM MDT
Moon 3:56 AM MDT (5/5) 4:35 PM MDT (5/5)
Length of Visible Light 15h 40m
Length of Day
14h 32m
Waning Crescent, 17% of the Moon is Illuminated
May 5
Waning Crescent
May 9
New
May 17
First Quarter
May 24
Full
May 31
Last Quarter

Hourly Weather History & Observations

Time (MDT) Temp. Windchill Dew Point Humidity Pressure Visibility Wind Dir Wind Speed Gust Speed Precip Events Conditions
12:53 AM 42.1 °F 36.6 °F 34.0 °F 73% 30.17 in 10.0 mi SSE 9.2 mph - N/A   Overcast
1:53 AM 39.9 °F 35.1 °F 33.1 °F 77% 30.16 in 10.0 mi SSW 6.9 mph - N/A   Mostly Cloudy
2:53 AM 37.9 °F - 32.0 °F 79% 30.15 in 10.0 mi Calm Calm - N/A   Mostly Cloudy
3:53 AM 36.0 °F 33.3 °F 30.9 °F 82% 30.15 in 10.0 mi SW 3.5 mph - N/A   Clear
4:53 AM 33.1 °F - 30.0 °F 89% 30.15 in 10.0 mi Calm Calm - N/A   Clear
5:53 AM 30.0 °F - 28.0 °F 92% 30.17 in 10.0 mi Calm Calm - N/A   Clear
6:53 AM 28.9 °F - 27.0 °F 92% 30.19 in 10.0 mi Calm Calm - N/A   Clear
7:53 AM 32.0 °F - 28.9 °F 88% 30.17 in 10.0 mi Calm Calm - N/A   Clear
8:53 AM 41.0 °F - 32.0 °F 70% 30.13 in 10.0 mi Calm Calm - N/A   Clear
9:53 AM 46.0 °F - 32.0 °F 58% 30.10 in 10.0 mi Calm Calm - N/A   Clear
10:53 AM 52.0 °F - 30.0 °F 43% 30.06 in 10.0 mi ESE 10.4 mph - N/A   Clear
11:53 AM 53.1 °F - 30.0 °F 41% 30.06 in 10.0 mi SSE 13.8 mph 19.6 mph N/A   Clear
12:53 PM 55.9 °F - 30.0 °F 37% 30.04 in 10.0 mi SE 12.7 mph 20.7 mph N/A   Clear
1:53 PM 57.9 °F - 28.0 °F 32% 30.01 in 10.0 mi ENE 8.1 mph 17.3 mph N/A   Clear
2:53 PM 60.1 °F - 27.0 °F 28% 30.00 in 10.0 mi SE 8.1 mph 24.2 mph N/A   Scattered Clouds
3:53 PM 62.1 °F - 27.0 °F 26% 29.99 in 10.0 mi SSE 11.5 mph 21.9 mph N/A   Partly Cloudy
4:53 PM 61.0 °F - 26.1 °F 26% 30.00 in 10.0 mi SSE 13.8 mph 26.5 mph N/A   Clear
5:53 PM 63.0 °F - 24.1 °F 23% 29.97 in 10.0 mi NE 8.1 mph - N/A   Scattered Clouds
6:53 PM 60.1 °F - 23.0 °F 24% 29.99 in 10.0 mi East 8.1 mph 18.4 mph N/A   Clear
7:53 PM 59.0 °F - 25.0 °F 27% 29.98 in 10.0 mi East 8.1 mph - N/A   Clear
8:53 PM 55.9 °F - 25.0 °F 30% 29.96 in 10.0 mi East 4.6 mph - N/A   Clear
9:53 PM 51.1 °F - 27.0 °F 39% 29.98 in 10.0 mi SSW 9.2 mph - N/A   Clear
10:53 PM 50.0 °F - 27.0 °F 41% 29.97 in 10.0 mi Variable 4.6 mph - N/A   Clear
11:53 PM 48.0 °F - 28.0 °F 46% 29.98 in 10.0 mi Calm Calm - N/A   Clear